Year,Month,Day,Hour,Minute,Value (Times are PST for temperature in C)
2007,04,02,00,00,3.10
2007,04,02,00,01,3.10
2007,04,02,00,02,3.10
2007,04,02,00,03,3.10
2007,04,02,00,04,3.10
2007,04,02,00,05,3.10
2007,04,02,00,06,3.10
2007,04,02,00,07,3.10
2007,04,02,00,08,3.10
2007,04,02,00,09,3.10
2007,04,02,00,10,3.10
2007,04,02,00,11,3.10
2007,04,02,00,12,3.10
2007,04,02,00,13,3.10
2007,04,02,00,14,3.10
2007,04,02,00,15,3.10
2007,04,02,00,16,3.10
2007,04,02,00,17,3.10
2007,04,02,00,18,3.10
2007,04,02,00,19,3.10
2007,04,02,00,20,3.10
2007,04,02,00,21,3.10
2007,04,02,00,22,3.00
2007,04,02,00,23,2.90
2007,04,02,00,24,2.90
2007,04,02,00,25,2.90
2007,04,02,00,26,2.90
2007,04,02,00,27,2.90
2007,04,02,00,28,2.90
2007,04,02,00,29,2.90
2007,04,02,00,30,2.90
2007,04,02,00,31,2.90
2007,04,02,00,32,2.90
2007,04,02,00,33,2.90
2007,04,02,00,34,2.90
2007,04,02,00,35,2.90
2007,04,02,00,36,2.90
2007,04,02,00,37,2.90
2007,04,02,00,38,2.90
2007,04,02,00,39,2.90
2007,04,02,00,40,2.90
2007,04,02,00,41,2.90
2007,04,02,00,42,2.90
2007,04,02,00,43,2.90
2007,04,02,00,44,2.90
2007,04,02,00,45,2.90
2007,04,02,00,46,2.80
2007,04,02,00,47,2.80
2007,04,02,00,48,2.80
2007,04,02,00,49,2.80
2007,04,02,00,50,2.80
2007,04,02,00,51,2.80
2007,04,02,00,52,2.70
2007,04,02,00,53,2.70
2007,04,02,00,54,2.70
2007,04,02,00,55,2.70
2007,04,02,00,56,2.70
2007,04,02,00,57,2.70
2007,04,02,00,58,2.70
2007,04,02,00,59,2.70
2007,04,02,01,00,2.70
2007,04,02,01,01,2.70
2007,04,02,01,02,2.70
2007,04,02,01,03,2.70
2007,04,02,01,04,2.70
2007,04,02,01,05,2.70
2007,04,02,01,06,2.70
2007,04,02,01,07,2.70
2007,04,02,01,08,2.70
2007,04,02,01,09,2.70
2007,04,02,01,10,2.70
2007,04,02,01,11,2.70
2007,04,02,01,12,2.70
2007,04,02,01,13,2.60
2007,04,02,01,14,2.60
2007,04,02,01,15,2.60
2007,04,02,01,16,2.60
2007,04,02,01,17,2.60
2007,04,02,01,18,2.60
2007,04,02,01,19,2.70
2007,04,02,01,20,2.70
2007,04,02,01,21,2.70
2007,04,02,01,22,2.70
2007,04,02,01,23,2.70
2007,04,02,01,24,2.70
2007,04,02,01,25,2.70
2007,04,02,01,26,2.70
2007,04,02,01,27,2.80
2007,04,02,01,28,2.80
2007,04,02,01,29,2.70
2007,04,02,01,30,2.70
2007,04,02,01,31,2.70
2007,04,02,01,32,2.70
2007,04,02,01,33,2.70
2007,04,02,01,34,2.70
2007,04,02,01,35,2.70
2007,04,02,01,36,2.70
2007,04,02,01,37,2.70
2007,04,02,01,38,2.70
2007,04,02,01,39,2.70
2007,04,02,01,40,2.70
2007,04,02,01,41,2.70
2007,04,02,01,42,2.70
2007,04,02,01,43,2.70
2007,04,02,01,44,2.60
2007,04,02,01,45,2.60
2007,04,02,01,46,2.60
2007,04,02,01,47,2.60
2007,04,02,01,48,2.60
2007,04,02,01,49,2.60
2007,04,02,01,50,2.60
2007,04,02,01,51,2.60
2007,04,02,01,52,2.60
2007,04,02,01,53,2.60
2007,04,02,01,54,2.60
2007,04,02,01,55,2.60
2007,04,02,01,56,2.60
2007,04,02,01,57,2.60
2007,04,02,01,58,2.60
2007,04,02,01,59,2.60
2007,04,02,02,00,2.60
2007,04,02,02,01,2.60
2007,04,02,02,02,2.60
2007,04,02,02,03,2.50
2007,04,02,02,04,2.50
2007,04,02,02,05,2.50
2007,04,02,02,06,2.50
2007,04,02,02,07,2.50
2007,04,02,02,08,2.50
2007,04,02,02,09,2.50
2007,04,02,02,10,2.50
2007,04,02,02,11,2.50
2007,04,02,02,12,2.50
2007,04,02,02,13,2.50
2007,04,02,02,14,2.50
2007,04,02,02,15,2.50
2007,04,02,02,16,2.50
2007,04,02,02,17,2.50
2007,04,02,02,18,2.50
2007,04,02,02,19,2.60
2007,04,02,02,20,2.60
2007,04,02,02,21,2.60
2007,04,02,02,22,2.60
2007,04,02,02,23,2.60
2007,04,02,02,24,2.60
2007,04,02,02,25,2.60
2007,04,02,02,26,2.60
2007,04,02,02,27,2.60
2007,04,02,02,28,2.60
2007,04,02,02,29,2.60
2007,04,02,02,30,2.60
2007,04,02,02,31,2.60
2007,04,02,02,32,2.60
2007,04,02,02,33,2.60
2007,04,02,02,34,2.60
2007,04,02,02,35,2.60
2007,04,02,02,36,2.60
2007,04,02,02,37,2.60
2007,04,02,02,38,2.60
2007,04,02,02,39,2.50
2007,04,02,02,40,2.50
2007,04,02,02,41,2.50
2007,04,02,02,42,2.50
2007,04,02,02,43,2.50
2007,04,02,02,44,2.50
2007,04,02,02,45,2.50
2007,04,02,02,46,2.50
2007,04,02,02,47,2.50
2007,04,02,02,48,2.50
2007,04,02,02,49,2.60
2007,04,02,02,50,2.60
2007,04,02,02,51,2.60
2007,04,02,02,52,2.60
2007,04,02,02,53,2.60
2007,04,02,02,54,2.60
2007,04,02,02,55,2.60
2007,04,02,02,56,2.60
2007,04,02,02,57,2.60
2007,04,02,02,58,2.70
2007,04,02,02,59,2.70
2007,04,02,03,00,2.70
2007,04,02,03,01,2.70
2007,04,02,03,02,2.70
2007,04,02,03,03,2.70
2007,04,02,03,04,2.70
2007,04,02,03,05,2.70
2007,04,02,03,06,2.70
2007,04,02,03,07,2.70
2007,04,02,03,08,2.70
2007,04,02,03,09,2.70
2007,04,02,03,10,2.70
2007,04,02,03,11,2.70
2007,04,02,03,12,2.70
2007,04,02,03,13,2.70
2007,04,02,03,14,2.70
2007,04,02,03,15,2.70
2007,04,02,03,16,2.70
2007,04,02,03,17,2.70
2007,04,02,03,18,2.70
2007,04,02,03,19,2.60
2007,04,02,03,20,2.60
2007,04,02,03,21,2.60
2007,04,02,03,22,2.60
2007,04,02,03,23,2.50
2007,04,02,03,24,2.50
2007,04,02,03,25,2.50
2007,04,02,03,26,2.40
2007,04,02,03,27,2.40
2007,04,02,03,28,2.40
2007,04,02,03,29,2.40
2007,04,02,03,30,2.40
2007,04,02,03,31,2.30
2007,04,02,03,32,2.30
2007,04,02,03,33,2.30
2007,04,02,03,34,2.30
2007,04,02,03,35,2.40
2007,04,02,03,36,2.40
2007,04,02,03,37,2.40
2007,04,02,03,38,2.40
2007,04,02,03,39,2.40
2007,04,02,03,40,2.40
2007,04,02,03,41,2.40
2007,04,02,03,42,2.40
2007,04,02,03,43,2.40
2007,04,02,03,44,2.40
2007,04,02,03,45,2.40
2007,04,02,03,46,2.40
2007,04,02,03,47,2.40
2007,04,02,03,48,2.40
2007,04,02,03,49,2.40
2007,04,02,03,50,2.40
2007,04,02,03,51,2.40
2007,04,02,03,52,2.40
2007,04,02,03,53,2.40
2007,04,02,03,54,2.40
2007,04,02,03,55,2.40
2007,04,02,03,56,2.40
2007,04,02,03,57,2.40
2007,04,02,03,58,2.40
2007,04,02,03,59,2.40
2007,04,02,04,00,2.40
2007,04,02,04,01,2.40
2007,04,02,04,02,2.40
2007,04,02,04,03,2.30
2007,04,02,04,04,2.30
2007,04,02,04,05,2.30
2007,04,02,04,06,2.30
2007,04,02,04,07,2.30
2007,04,02,04,08,2.30
2007,04,02,04,09,2.30
2007,04,02,04,10,2.30
2007,04,02,04,11,2.30
2007,04,02,04,12,2.20
2007,04,02,04,13,2.20
2007,04,02,04,14,2.20
2007,04,02,04,15,2.20
2007,04,02,04,16,2.20
2007,04,02,04,17,2.20
2007,04,02,04,18,2.20
2007,04,02,04,19,2.20
2007,04,02,04,20,2.20
2007,04,02,04,21,2.20
2007,04,02,04,22,2.10
2007,04,02,04,23,2.10
2007,04,02,04,24,2.10
2007,04,02,04,25,2.10
2007,04,02,04,26,2.10
2007,04,02,04,27,2.10
2007,04,02,04,28,2.00
2007,04,02,04,29,2.00
2007,04,02,04,30,2.00
2007,04,02,04,31,1.90
2007,04,02,04,32,1.90
2007,04,02,04,33,1.90
2007,04,02,04,34,1.90
2007,04,02,04,35,1.90
2007,04,02,04,36,1.90
2007,04,02,04,37,1.90
2007,04,02,04,38,1.90
2007,04,02,04,39,1.90
2007,04,02,04,40,1.80
2007,04,02,04,41,1.80
2007,04,02,04,42,1.80
2007,04,02,04,43,1.80
2007,04,02,04,44,1.80
2007,04,02,04,45,1.70
2007,04,02,04,46,1.70
2007,04,02,04,47,1.70
2007,04,02,04,48,1.70
2007,04,02,04,49,1.70
2007,04,02,04,50,1.70
2007,04,02,04,51,1.60
2007,04,02,04,52,1.60
2007,04,02,04,53,1.60
2007,04,02,04,54,1.60
2007,04,02,04,55,1.60
2007,04,02,04,56,1.60
2007,04,02,04,57,1.50
2007,04,02,04,58,1.50
2007,04,02,04,59,1.40
2007,04,02,05,00,1.40
2007,04,02,05,01,1.30
2007,04,02,05,02,1.30
2007,04,02,05,03,1.30
2007,04,02,05,04,1.20
2007,04,02,05,05,1.20
2007,04,02,05,06,1.20
2007,04,02,05,07,1.20
2007,04,02,05,08,1.20
2007,04,02,05,09,1.10
2007,04,02,05,10,1.10
2007,04,02,05,11,1.10
2007,04,02,05,12,1.10
2007,04,02,05,13,1.10
2007,04,02,05,14,1.10
2007,04,02,05,15,1.10
2007,04,02,05,16,1.10
2007,04,02,05,17,1.10
2007,04,02,05,18,1.10
2007,04,02,05,19,1.10
2007,04,02,05,20,1.10
2007,04,02,05,21,1.10
2007,04,02,05,22,1.10
2007,04,02,05,23,1.10
2007,04,02,05,24,1.10
2007,04,02,05,25,1.10
2007,04,02,05,26,1.10
2007,04,02,05,27,1.10
2007,04,02,05,28,1.10
2007,04,02,05,29,1.00
2007,04,02,05,30,1.00
2007,04,02,05,31,1.00
2007,04,02,05,32,0.90
2007,04,02,05,33,0.90
2007,04,02,05,34,0.90
2007,04,02,05,35,0.90
2007,04,02,05,36,0.90
2007,04,02,05,37,1.00
2007,04,02,05,38,1.00
2007,04,02,05,39,1.00
2007,04,02,05,40,1.10
2007,04,02,05,41,1.10
2007,04,02,05,42,1.10
2007,04,02,05,43,1.10
2007,04,02,05,44,1.20
2007,04,02,05,45,1.20
2007,04,02,05,46,1.20
2007,04,02,05,47,1.20
2007,04,02,05,48,1.20
2007,04,02,05,49,1.20
2007,04,02,05,50,1.20
2007,04,02,05,51,1.20
2007,04,02,05,52,1.20
2007,04,02,05,53,1.20
2007,04,02,05,54,1.20
2007,04,02,05,55,1.20
2007,04,02,05,56,1.10
2007,04,02,05,57,1.10
2007,04,02,05,58,1.10
2007,04,02,05,59,1.10
2007,04,02,06,00,1.20
2007,04,02,06,01,1.20
2007,04,02,06,02,1.20
2007,04,02,06,03,1.20
2007,04,02,06,04,1.20
2007,04,02,06,05,1.20
2007,04,02,06,06,1.10
2007,04,02,06,07,1.10
2007,04,02,06,08,1.10
2007,04,02,06,09,1.10
2007,04,02,06,10,1.10
2007,04,02,06,11,1.00
2007,04,02,06,12,1.00
2007,04,02,06,13,1.00
2007,04,02,06,14,0.90
2007,04,02,06,15,0.80
2007,04,02,06,16,0.80
2007,04,02,06,17,0.70
2007,04,02,06,18,0.60
2007,04,02,06,19,0.60
2007,04,02,06,20,0.50
2007,04,02,06,21,0.50
2007,04,02,06,22,0.40
2007,04,02,06,23,0.40
2007,04,02,06,24,0.30
2007,04,02,06,25,0.30
2007,04,02,06,26,0.20
2007,04,02,06,27,0.20
2007,04,02,06,28,0.10
2007,04,02,06,29,0.10
2007,04,02,06,30,0.10
2007,04,02,06,31,0.10
2007,04,02,06,32,0.10
2007,04,02,06,33,0.10
2007,04,02,06,34,0.00
2007,04,02,06,35,-0.10
2007,04,02,06,36,-0.10
2007,04,02,06,37,-0.10
2007,04,02,06,38,-0.10
2007,04,02,06,39,-0.10
2007,04,02,06,40,-0.20
2007,04,02,06,41,-0.20
2007,04,02,06,42,-0.20
2007,04,02,06,43,-0.20
2007,04,02,06,44,-0.20
2007,04,02,06,45,-0.20
2007,04,02,06,46,-0.20
2007,04,02,06,47,-0.30
2007,04,02,06,48,-0.30
2007,04,02,06,49,-0.30
2007,04,02,06,50,-0.30
2007,04,02,06,51,-0.30
2007,04,02,06,52,-0.30
2007,04,02,06,53,-0.30
2007,04,02,06,54,-0.30
2007,04,02,06,55,-0.30
2007,04,02,06,56,-0.30
2007,04,02,06,57,-0.40
2007,04,02,06,58,-0.40
2007,04,02,06,59,-0.40
2007,04,02,07,00,-0.40
2007,04,02,07,01,-0.40
2007,04,02,07,02,-0.40
2007,04,02,07,03,-0.40
2007,04,02,07,04,-0.40
2007,04,02,07,05,-0.40
2007,04,02,07,06,-0.40
2007,04,02,07,07,-0.40
2007,04,02,07,08,-0.40
2007,04,02,07,09,-0.40
2007,04,02,07,10,-0.40
2007,04,02,07,11,-0.40
2007,04,02,07,12,-0.40
2007,04,02,07,13,-0.40
2007,04,02,07,14,-0.40
2007,04,02,07,15,-0.40
2007,04,02,07,16,-0.40
2007,04,02,07,17,-0.40
2007,04,02,07,18,-0.40
2007,04,02,07,19,-0.40
2007,04,02,07,20,-0.40
2007,04,02,07,21,-0.40
2007,04,02,07,22,-0.30
2007,04,02,07,23,-0.30
2007,04,02,07,24,-0.30
2007,04,02,07,25,-0.30
2007,04,02,07,26,-0.30
2007,04,02,07,27,-0.20
2007,04,02,07,28,-0.20
2007,04,02,07,29,-0.20
2007,04,02,07,30,-0.20
2007,04,02,07,31,-0.10
2007,04,02,07,32,-0.10
2007,04,02,07,33,-0.10
2007,04,02,07,34,-0.10
2007,04,02,07,35,-0.10
2007,04,02,07,36,-0.10
2007,04,02,07,37,-0.10
2007,04,02,07,38,-0.10
2007,04,02,07,39,0.00
2007,04,02,07,40,0.10
2007,04,02,07,41,0.10
2007,04,02,07,42,0.10
2007,04,02,07,43,0.10
2007,04,02,07,44,0.10
2007,04,02,07,45,0.10
2007,04,02,07,46,0.20
2007,04,02,07,47,0.20
2007,04,02,07,48,0.20
2007,04,02,07,49,0.30
2007,04,02,07,50,0.30
2007,04,02,07,51,0.40
2007,04,02,07,52,0.40
2007,04,02,07,53,0.40
2007,04,02,07,54,0.50
2007,04,02,07,55,0.50
2007,04,02,07,56,0.60
2007,04,02,07,57,0.60
2007,04,02,07,58,0.60
2007,04,02,07,59,0.70
2007,04,02,08,00,0.80
2007,04,02,08,01,0.80
2007,04,02,08,02,0.80
2007,04,02,08,03,0.90
2007,04,02,08,04,1.00
2007,04,02,08,05,1.10
2007,04,02,08,06,1.10
2007,04,02,08,07,1.20
2007,04,02,08,08,1.40
2007,04,02,08,09,1.50
2007,04,02,08,10,1.70
2007,04,02,08,11,1.70
2007,04,02,08,12,1.80
2007,04,02,08,13,1.80
2007,04,02,08,14,1.80
2007,04,02,08,15,1.80
2007,04,02,08,16,1.80
2007,04,02,08,17,1.90
2007,04,02,08,18,2.00
2007,04,02,08,19,2.00
2007,04,02,08,20,2.10
2007,04,02,08,21,2.20
2007,04,02,08,22,2.20
2007,04,02,08,23,2.20
2007,04,02,08,24,2.30
2007,04,02,08,25,2.40
2007,04,02,08,26,2.50
2007,04,02,08,27,2.60
2007,04,02,08,28,2.70
2007,04,02,08,29,2.70
2007,04,02,08,30,2.80
2007,04,02,08,31,3.00
2007,04,02,08,32,3.10
2007,04,02,08,33,3.20
2007,04,02,08,34,3.20
2007,04,02,08,35,3.30
2007,04,02,08,36,3.30
2007,04,02,08,37,3.40
2007,04,02,08,38,3.40
2007,04,02,08,39,3.50
2007,04,02,08,40,3.50
2007,04,02,08,41,3.50
2007,04,02,08,42,3.60
2007,04,02,08,43,3.70
2007,04,02,08,44,3.80
2007,04,02,08,45,3.90
2007,04,02,08,46,4.00
2007,04,02,08,47,4.00
2007,04,02,08,48,4.20
2007,04,02,08,49,4.20
2007,04,02,08,50,4.40
2007,04,02,08,51,4.40
2007,04,02,08,52,4.50
2007,04,02,08,53,4.60
2007,04,02,08,54,4.70
2007,04,02,08,55,4.70
2007,04,02,08,56,4.80
2007,04,02,08,57,4.80
2007,04,02,08,58,4.90
2007,04,02,08,59,4.90
2007,04,02,09,00,4.90
2007,04,02,09,01,4.90
2007,04,02,09,02,4.90
2007,04,02,09,03,4.90
2007,04,02,09,04,4.90
2007,04,02,09,05,4.90
2007,04,02,09,06,5.00
2007,04,02,09,07,5.10
2007,04,02,09,08,5.10
2007,04,02,09,09,5.10
2007,04,02,09,10,5.10
2007,04,02,09,11,5.20
2007,04,02,09,12,5.20
2007,04,02,09,13,5.20
2007,04,02,09,14,5.30
2007,04,02,09,15,5.30
2007,04,02,09,16,5.30
2007,04,02,09,17,5.30
2007,04,02,09,18,5.30
2007,04,02,09,19,5.40
2007,04,02,09,20,5.50
2007,04,02,09,21,5.60
2007,04,02,09,22,5.60
2007,04,02,09,23,5.70
2007,04,02,09,24,5.70
2007,04,02,09,25,5.80
2007,04,02,09,26,5.80
2007,04,02,09,27,5.70
2007,04,02,09,28,5.70
2007,04,02,09,29,5.70
2007,04,02,09,30,5.70
2007,04,02,09,31,5.70
2007,04,02,09,32,5.60
2007,04,02,09,33,5.60
2007,04,02,09,34,5.60
2007,04,02,09,35,5.60
2007,04,02,09,36,5.60
2007,04,02,09,37,5.60
2007,04,02,09,38,5.60
2007,04,02,09,39,5.60
2007,04,02,09,40,5.60
2007,04,02,09,41,5.70
2007,04,02,09,42,5.70
2007,04,02,09,43,5.70
2007,04,02,09,44,5.80
2007,04,02,09,45,5.80
2007,04,02,09,46,5.90
2007,04,02,09,47,5.90
2007,04,02,09,48,6.00
2007,04,02,09,49,6.00
2007,04,02,09,50,6.00
2007,04,02,09,51,6.00
2007,04,02,09,52,6.10
2007,04,02,09,53,6.20
2007,04,02,09,54,6.20
2007,04,02,09,55,6.20
2007,04,02,09,56,6.20
2007,04,02,09,57,6.20
2007,04,02,09,58,6.20
2007,04,02,09,59,6.30
2007,04,02,10,00,6.30
2007,04,02,10,01,6.30
2007,04,02,10,02,6.30
2007,04,02,10,03,6.30
2007,04,02,10,04,6.30
2007,04,02,10,05,6.30
2007,04,02,10,06,6.20
2007,04,02,10,07,6.20
2007,04,02,10,08,6.20
2007,04,02,10,09,6.20
2007,04,02,10,10,6.20
2007,04,02,10,11,6.20
2007,04,02,10,12,6.30
2007,04,02,10,13,6.40
2007,04,02,10,14,6.40
2007,04,02,10,15,6.40
2007,04,02,10,16,6.40
2007,04,02,10,17,6.50
2007,04,02,10,18,6.60
2007,04,02,10,19,6.80
2007,04,02,10,20,6.80
2007,04,02,10,21,6.80
2007,04,02,10,22,6.80
2007,04,02,10,23,6.80
2007,04,02,10,24,6.80
2007,04,02,10,25,6.70
2007,04,02,10,26,6.70
2007,04,02,10,27,6.60
2007,04,02,10,28,6.60
2007,04,02,10,29,6.60
2007,04,02,10,30,6.60
2007,04,02,10,31,6.70
2007,04,02,10,32,6.70
2007,04,02,10,33,6.80
2007,04,02,10,34,6.80
2007,04,02,10,35,6.80
2007,04,02,10,36,6.70
2007,04,02,10,37,6.70
2007,04,02,10,38,6.70
2007,04,02,10,39,6.60
2007,04,02,10,40,6.60
2007,04,02,10,41,6.40
2007,04,02,10,42,6.40
2007,04,02,10,43,6.40
2007,04,02,10,44,6.40
2007,04,02,10,45,6.50
2007,04,02,10,46,6.60
2007,04,02,10,47,6.60
2007,04,02,10,48,6.60
2007,04,02,10,49,6.70
2007,04,02,10,50,6.70
2007,04,02,10,51,6.80
2007,04,02,10,52,6.90
2007,04,02,10,53,6.90
2007,04,02,10,54,6.80
2007,04,02,10,55,6.80
2007,04,02,10,56,6.80
2007,04,02,10,57,6.70
2007,04,02,10,58,6.60
2007,04,02,10,59,6.60
2007,04,02,11,00,6.70
2007,04,02,11,01,6.70
2007,04,02,11,02,6.80
2007,04,02,11,03,6.80
2007,04,02,11,04,6.80
2007,04,02,11,05,6.80
2007,04,02,11,06,6.80
2007,04,02,11,07,6.80
2007,04,02,11,08,6.80
2007,04,02,11,09,6.70
2007,04,02,11,10,6.60
2007,04,02,11,11,6.60
2007,04,02,11,12,6.60
2007,04,02,11,13,6.60
2007,04,02,11,14,6.60
2007,04,02,11,15,6.60
2007,04,02,11,16,6.60
2007,04,02,11,17,6.60
2007,04,02,11,18,6.60
2007,04,02,11,19,6.60
2007,04,02,11,20,6.60
2007,04,02,11,21,6.60
2007,04,02,11,22,6.60
2007,04,02,11,23,6.60
2007,04,02,11,24,6.60
2007,04,02,11,25,6.60
2007,04,02,11,26,6.60
2007,04,02,11,27,6.60
2007,04,02,11,28,6.60
2007,04,02,11,29,6.60
2007,04,02,11,30,6.60
2007,04,02,11,31,6.60
2007,04,02,11,32,6.60
2007,04,02,11,33,6.60
2007,04,02,11,34,6.60
2007,04,02,11,35,6.60
2007,04,02,11,36,6.60
2007,04,02,11,37,6.60
2007,04,02,11,38,6.60
2007,04,02,11,39,6.60
2007,04,02,11,40,6.60
2007,04,02,11,41,6.60
2007,04,02,11,42,6.60
2007,04,02,11,43,6.70
2007,04,02,11,44,6.70
2007,04,02,11,45,6.70
2007,04,02,11,46,6.80
2007,04,02,11,47,6.80
2007,04,02,11,48,6.70
2007,04,02,11,49,6.70
2007,04,02,11,50,6.60
2007,04,02,11,51,6.50
2007,04,02,11,52,6.40
2007,04,02,11,53,6.40
2007,04,02,11,54,6.30
2007,04,02,11,55,6.20
2007,04,02,11,56,6.20
2007,04,02,11,57,6.20
2007,04,02,11,58,6.30
2007,04,02,11,59,6.30
2007,04,02,12,00,6.20
2007,04,02,12,01,6.20
2007,04,02,12,02,6.20
2007,04,02,12,03,6.20
2007,04,02,12,04,6.20
2007,04,02,12,05,6.20
2007,04,02,12,06,6.20
2007,04,02,12,07,6.20
2007,04,02,12,08,6.20
2007,04,02,12,09,6.20
2007,04,02,12,10,6.20
2007,04,02,12,11,6.20
2007,04,02,12,12,6.20
2007,04,02,12,13,6.20
2007,04,02,12,14,6.20
2007,04,02,12,15,6.20
2007,04,02,12,16,6.10
2007,04,02,12,17,6.10
2007,04,02,12,18,6.10
2007,04,02,12,19,6.10
2007,04,02,12,20,6.20
2007,04,02,12,21,6.20
2007,04,02,12,22,6.20
2007,04,02,12,23,6.20
2007,04,02,12,24,6.10
2007,04,02,12,25,6.10
2007,04,02,12,26,6.10
2007,04,02,12,27,6.10
2007,04,02,12,28,6.10
2007,04,02,12,29,6.20
2007,04,02,12,30,6.20
2007,04,02,12,31,6.30
2007,04,02,12,32,6.30
2007,04,02,12,33,6.40
2007,04,02,12,34,6.40
2007,04,02,12,35,6.50
2007,04,02,12,36,6.60
2007,04,02,12,37,6.60
2007,04,02,12,38,6.60
2007,04,02,12,39,6.60
2007,04,02,12,40,6.70
2007,04,02,12,41,6.80
2007,04,02,12,42,6.80
2007,04,02,12,43,6.80
2007,04,02,12,44,6.90
2007,04,02,12,45,7.00
2007,04,02,12,46,7.00
2007,04,02,12,47,7.00
2007,04,02,12,48,6.90
2007,04,02,12,49,7.00
2007,04,02,12,50,7.10
2007,04,02,12,51,7.20
2007,04,02,12,52,7.10
2007,04,02,12,53,7.10
2007,04,02,12,54,7.10
2007,04,02,12,55,7.10
2007,04,02,12,56,7.20
2007,04,02,12,57,7.30
2007,04,02,12,58,7.40
2007,04,02,12,59,7.50
2007,04,02,13,00,7.60
2007,04,02,13,01,7.70
2007,04,02,13,02,7.80
2007,04,02,13,03,7.80
2007,04,02,13,04,7.80
2007,04,02,13,05,7.80
2007,04,02,13,06,7.80
2007,04,02,13,07,7.70
2007,04,02,13,08,7.70
2007,04,02,13,09,7.80
2007,04,02,13,10,7.70
2007,04,02,13,11,7.60
2007,04,02,13,12,7.50
2007,04,02,13,13,7.40
2007,04,02,13,14,7.30
2007,04,02,13,15,7.30
2007,04,02,13,16,7.30
2007,04,02,13,17,7.30
2007,04,02,13,18,7.30
2007,04,02,13,19,7.10
2007,04,02,13,20,7.10
2007,04,02,13,21,7.10
2007,04,02,13,22,7.00
2007,04,02,13,23,7.00
2007,04,02,13,24,6.90
2007,04,02,13,25,7.00
2007,04,02,13,26,7.00
2007,04,02,13,27,7.00
2007,04,02,13,28,6.90
2007,04,02,13,29,6.80
2007,04,02,13,30,6.80
2007,04,02,13,31,6.80
2007,04,02,13,32,6.90
2007,04,02,13,33,6.90
2007,04,02,13,34,6.90
2007,04,02,13,35,6.90
2007,04,02,13,36,7.00
2007,04,02,13,37,7.00
2007,04,02,13,38,7.00
2007,04,02,13,39,7.00
2007,04,02,13,40,7.10
2007,04,02,13,41,7.00
2007,04,02,13,42,7.00
2007,04,02,13,43,7.00
2007,04,02,13,44,7.00
2007,04,02,13,45,7.10
2007,04,02,13,46,7.10
2007,04,02,13,47,7.10
2007,04,02,13,48,7.10
2007,04,02,13,49,7.20
2007,04,02,13,50,7.30
2007,04,02,13,51,7.30
2007,04,02,13,52,7.40
2007,04,02,13,53,7.40
2007,04,02,13,54,7.40
2007,04,02,13,55,7.50
2007,04,02,13,56,7.50
2007,04,02,13,57,7.60
2007,04,02,13,58,7.60
2007,04,02,13,59,7.60
2007,04,02,14,00,7.60
2007,04,02,14,01,7.50
2007,04,02,14,02,7.50
2007,04,02,14,03,7.50
2007,04,02,14,04,7.60
2007,04,02,14,05,7.60
2007,04,02,14,06,7.40
2007,04,02,14,07,7.30
2007,04,02,14,08,7.30
2007,04,02,14,09,7.30
2007,04,02,14,10,7.30
2007,04,02,14,11,7.30
2007,04,02,14,12,7.30
2007,04,02,14,13,7.20
2007,04,02,14,14,7.20
2007,04,02,14,15,7.20
2007,04,02,14,16,7.30
2007,04,02,14,17,7.30
2007,04,02,14,18,7.30
2007,04,02,14,19,7.40
2007,04,02,14,20,7.40
2007,04,02,14,21,7.40
2007,04,02,14,22,7.40
2007,04,02,14,23,7.50
2007,04,02,14,24,7.50
2007,04,02,14,25,7.50
2007,04,02,14,26,7.60
2007,04,02,14,27,7.50
2007,04,02,14,28,7.40
2007,04,02,14,29,7.40
2007,04,02,14,30,7.40
2007,04,02,14,31,7.50
2007,04,02,14,32,7.50
2007,04,02,14,33,7.40
2007,04,02,14,34,7.40
2007,04,02,14,35,7.40
2007,04,02,14,36,7.30
2007,04,02,14,37,7.30
2007,04,02,14,38,7.30
2007,04,02,14,39,7.20
2007,04,02,14,40,7.20
2007,04,02,14,41,7.10
2007,04,02,14,42,7.10
2007,04,02,14,43,7.20
2007,04,02,14,44,7.30
2007,04,02,14,45,7.30
2007,04,02,14,46,7.20
2007,04,02,14,47,7.20
2007,04,02,14,48,7.20
2007,04,02,14,49,7.30
2007,04,02,14,50,7.40
2007,04,02,14,51,7.50
2007,04,02,14,52,7.60
2007,04,02,14,53,7.80
2007,04,02,14,54,8.00
2007,04,02,14,55,8.10
2007,04,02,14,56,8.10
2007,04,02,14,57,8.20
2007,04,02,14,58,8.20
2007,04,02,14,59,8.30
2007,04,02,15,00,8.30
2007,04,02,15,01,8.30
2007,04,02,15,02,8.20
2007,04,02,15,03,8.00
2007,04,02,15,04,7.80
2007,04,02,15,05,7.80
2007,04,02,15,06,7.80
2007,04,02,15,07,7.80
2007,04,02,15,08,7.80
2007,04,02,15,09,7.80
2007,04,02,15,10,7.80
2007,04,02,15,11,7.90
2007,04,02,15,12,8.00
2007,04,02,15,13,8.20
2007,04,02,15,14,8.20
2007,04,02,15,15,8.20
2007,04,02,15,16,8.20
2007,04,02,15,17,8.10
2007,04,02,15,18,8.00
2007,04,02,15,19,7.90
2007,04,02,15,20,7.90
2007,04,02,15,21,8.00
2007,04,02,15,22,8.00
2007,04,02,15,23,7.90
2007,04,02,15,24,7.80
2007,04,02,15,25,7.80
2007,04,02,15,26,7.80
2007,04,02,15,27,7.80
2007,04,02,15,28,7.90
2007,04,02,15,29,7.90
2007,04,02,15,30,7.90
2007,04,02,15,31,8.00
2007,04,02,15,32,8.10
2007,04,02,15,33,8.20
2007,04,02,15,34,8.10
2007,04,02,15,35,7.90
2007,04,02,15,36,7.80
2007,04,02,15,37,7.80
2007,04,02,15,38,7.80
2007,04,02,15,39,7.80
2007,04,02,15,40,7.80
2007,04,02,15,41,7.80
2007,04,02,15,42,7.80
2007,04,02,15,43,7.80
2007,04,02,15,44,7.90
2007,04,02,15,45,7.90
2007,04,02,15,46,7.90
2007,04,02,15,47,7.90
2007,04,02,15,48,7.90
2007,04,02,15,49,7.90
2007,04,02,15,50,7.80
2007,04,02,15,51,7.90
2007,04,02,15,52,7.90
2007,04,02,15,53,7.80
2007,04,02,15,54,7.90
2007,04,02,15,55,8.00
2007,04,02,15,56,8.10
2007,04,02,15,57,8.20
2007,04,02,15,58,8.40
2007,04,02,15,59,8.40
2007,04,02,16,00,8.40
2007,04,02,16,01,8.50
2007,04,02,16,02,8.50
2007,04,02,16,03,8.50
2007,04,02,16,04,8.40
2007,04,02,16,05,8.30
2007,04,02,16,06,8.30
2007,04,02,16,07,8.30
2007,04,02,16,08,8.20
2007,04,02,16,09,8.20
2007,04,02,16,10,8.20
2007,04,02,16,11,8.20
2007,04,02,16,12,8.30
2007,04,02,16,13,8.40
2007,04,02,16,14,8.50
2007,04,02,16,15,8.50
2007,04,02,16,16,8.50
2007,04,02,16,17,8.40
2007,04,02,16,18,8.20
2007,04,02,16,19,8.10
2007,04,02,16,20,8.10
2007,04,02,16,21,8.10
2007,04,02,16,22,8.10
2007,04,02,16,23,8.10
2007,04,02,16,24,8.10
2007,04,02,16,25,8.00
2007,04,02,16,26,8.00
2007,04,02,16,27,7.90
2007,04,02,16,28,7.80
2007,04,02,16,29,7.70
2007,04,02,16,30,7.60
2007,04,02,16,31,7.60
2007,04,02,16,32,7.60
2007,04,02,16,33,7.60
2007,04,02,16,34,7.50
2007,04,02,16,35,7.50
2007,04,02,16,36,7.50
2007,04,02,16,37,7.50
2007,04,02,16,38,7.50
2007,04,02,16,39,7.50
2007,04,02,16,40,7.50
2007,04,02,16,41,7.50
2007,04,02,16,42,7.50
2007,04,02,16,43,7.50
2007,04,02,16,44,7.50
2007,04,02,16,45,7.50
2007,04,02,16,46,7.50
2007,04,02,16,47,7.50
2007,04,02,16,48,7.50
2007,04,02,16,49,7.60
2007,04,02,16,50,7.60
2007,04,02,16,51,7.60
2007,04,02,16,52,7.60
2007,04,02,16,53,7.70
2007,04,02,16,54,7.80
2007,04,02,16,55,7.80
2007,04,02,16,56,7.80
2007,04,02,16,57,7.80
2007,04,02,16,58,7.90
2007,04,02,16,59,7.90
2007,04,02,17,00,7.90
2007,04,02,17,01,7.90
2007,04,02,17,02,8.00
2007,04,02,17,03,8.00
2007,04,02,17,04,8.00
2007,04,02,17,05,7.90
2007,04,02,17,06,7.80
2007,04,02,17,07,7.80
2007,04,02,17,08,7.70
2007,04,02,17,09,7.60
2007,04,02,17,10,7.50
2007,04,02,17,11,7.50
2007,04,02,17,12,7.50
2007,04,02,17,13,7.60
2007,04,02,17,14,7.70
2007,04,02,17,15,7.60
2007,04,02,17,16,7.50
2007,04,02,17,17,7.40
2007,04,02,17,18,7.30
2007,04,02,17,19,7.30
2007,04,02,17,20,7.30
2007,04,02,17,21,7.30
2007,04,02,17,22,7.30
2007,04,02,17,23,7.20
2007,04,02,17,24,7.20
2007,04,02,17,25,7.30
2007,04,02,17,26,7.30
2007,04,02,17,27,7.30
2007,04,02,17,28,7.30
2007,04,02,17,29,7.20
2007,04,02,17,30,7.20
2007,04,02,17,31,7.20
2007,04,02,17,32,7.30
2007,04,02,17,33,7.30
2007,04,02,17,34,7.30
2007,04,02,17,35,7.30
2007,04,02,17,36,7.30
2007,04,02,17,37,7.30
2007,04,02,17,38,7.30
2007,04,02,17,39,7.30
2007,04,02,17,40,7.30
2007,04,02,17,41,7.40
2007,04,02,17,42,7.40
2007,04,02,17,43,7.30
2007,04,02,17,44,7.30
2007,04,02,17,45,7.30
2007,04,02,17,46,7.30
2007,04,02,17,47,7.30
2007,04,02,17,48,7.20
2007,04,02,17,49,7.20
2007,04,02,17,50,7.10
2007,04,02,17,51,7.10
2007,04,02,17,52,7.10
2007,04,02,17,53,7.00
2007,04,02,17,54,7.00
2007,04,02,17,55,7.00
2007,04,02,17,56,7.00
2007,04,02,17,57,7.00
2007,04,02,17,58,7.10
2007,04,02,17,59,7.10
2007,04,02,18,00,7.20
2007,04,02,18,01,7.20
2007,04,02,18,02,7.30
2007,04,02,18,03,7.30